WetterOnline ( https://www.wetteronline.de )

Wetter aktuell Werl

Aktuelles Wetter: Werl (84m)

6-stündlich | Neueste Meldungen
Ortszeit Temperatur Wetter
Di, 24.11. 1:00 3.4° C bewölkt
Mo, 23.11. 19:00 4.1° C wolkig
Mo, 23.11. 13:00 9.4° C leicht bewölkt
Mo, 23.11. 7:00 5.9° C leicht bewölkt
Mo, 23.11. 1:00 7.9° C bedeckt
So, 22.11. 19:00 9.0° C bedeckt
So, 22.11. 13:00 8.9° C Regen
So, 22.11. 7:00 8.0° C Regen
Ortszeit Temperatur Wetter
Di, 24.11. 3:00 5.8° C bewölkt
Di, 24.11. 2:50 5.8° C bewölkt
Di, 24.11. 2:40 5.9° C bewölkt
Di, 24.11. 2:30 5.6° C wolkig
Di, 24.11. 2:20 5.6° C wolkig
Di, 24.11. 2:10 5.0° C leicht bewölkt
Di, 24.11. 2:00 5.1° C leicht bewölkt
Di, 24.11. 1:30 4.6° C leicht bewölkt
Di, 24.11. 1:00 3.4° C bewölkt
Di, 24.11. 0:30 1.6° C leicht bewölkt
Di, 24.11. 0:00 1.9° C wolkig
Ortszeit Relative Feuchte Sichtweite
Di, 24.11. 1:00 95% 18 km
Mo, 23.11. 19:00 85% 29 km
Mo, 23.11. 13:00 73% 27 km
Mo, 23.11. 7:00 90% 22 km
Mo, 23.11. 1:00 95% 7 km
So, 22.11. 19:00 95% 11 km
So, 22.11. 13:00 98% 4.0 km
So, 22.11. 7:00 94% 13 km
Ortszeit Relative Feuchte Sichtweite
Di, 24.11. 3:00 89% 29 km
Di, 24.11. 2:50 89% -
Di, 24.11. 2:40 89% -
Di, 24.11. 2:30 90% 23 km
Di, 24.11. 2:20 90% -
Di, 24.11. 2:10 91% -
Di, 24.11. 2:00 91% 22 km
Di, 24.11. 1:30 93% 21 km
Di, 24.11. 1:00 95% 18 km
Di, 24.11. 0:30 98% 13 km
Di, 24.11. 0:00 96% 16 km
Ortszeit Niederschlagsmenge Niederschlagsart
Di, 24.11. 1:00 0.0 l/m2 in 6 Std. -
Mo, 23.11. 19:00 0.0 l/m2 in 12 Std. -
Mo, 23.11. 13:00 0.0 l/m2 in 6 Std. -
Mo, 23.11. 7:00 0.1 l/m2 in 12 Std. -
Mo, 23.11. 1:00 0.1 l/m2 in 6 Std. Regen
So, 22.11. 19:00 3 l/m2 in 12 Std. Regen
So, 22.11. 13:00 2 l/m2 in 6 Std. Regen
So, 22.11. 7:00 0.1 l/m2 in 12 Std. Regen
Ortszeit Niederschlagsmenge Niederschlagsart
Di, 24.11. 3:00 0.0 l/m2 in 1 Std. -
Di, 24.11. 2:50 keine Meldung -
Di, 24.11. 2:40 keine Meldung -
Di, 24.11. 2:30 0.0 l/m2 in 1 Std. -
Di, 24.11. 2:20 keine Meldung -
Di, 24.11. 2:10 keine Meldung -
Di, 24.11. 2:00 0.0 l/m2 in 1 Std. -
Di, 24.11. 1:30 0.0 l/m2 in 1 Std. -
Di, 24.11. 1:00 0.0 l/m2 in 1 Std. -
Di, 24.11. 0:30 0.0 l/m2 in 1 Std. -
Di, 24.11. 0:00 0.0 l/m2 in 1 Std. -
Ortszeit Stärke Spitze Richtung
km/h Bft. km/h Grad Sektor
Di, 24.11. 1:00 9 2 13 170° S
Mo, 23.11. 19:00 7 2 18 180° S
Mo, 23.11. 13:00 13 3 20 260° W
Mo, 23.11. 7:00 14 3 25 250° W
Mo, 23.11. 1:00 9 2 19 240° SW
So, 22.11. 19:00 11 2 24 250° W
So, 22.11. 13:00 14 3 32 250° W
So, 22.11. 7:00 18 3 36 220° SW
Ortszeit Stärke Spitze Richtung
km/h Bft. km/h Grad Sektor
Di, 24.11. 3:00 11 2 22 190° S
Di, 24.11. 2:50 11 2 - 190° S
Di, 24.11. 2:40 11 2 - 190° S
Di, 24.11. 2:30 9 2 15 190° S
Di, 24.11. 2:20 9 2 - 190° S
Di, 24.11. 2:10 9 2 - 200° S
Di, 24.11. 2:00 7 2 14 220° SW
Di, 24.11. 1:30 4 1 14 150° SO
Di, 24.11. 1:00 9 2 13 170° S
Di, 24.11. 0:30 7 2 11 190° S
Di, 24.11. 0:00 0 0 7 - -
Ortszeit Untergrenze Bedeckung Gattung
total tief tief mittel hoch
Di, 24.11. 1:00 1140 m 8/8 6/8 - - -
Mo, 23.11. 19:00 6300 m 6/8 5/8 - - -
Mo, 23.11. 13:00 660 m 2/8 2/8 - - -
Mo, 23.11. 7:00 5700 m 2/8 2/8 - - -
Mo, 23.11. 1:00 840 m 8/8 8/8 - - -
So, 22.11. 19:00 270 m 8/8 8/8 - - -
So, 22.11. 13:00 180 m 8/8 8/8 - - -
So, 22.11. 7:00 270 m 7/8 7/8 - - -
Ortszeit Bedeckungsgrad in Achtel und Wolkenuntergrenze
Di, 24.11. 3:00 7(1110m) 7(8700m)
Di, 24.11. 2:50 7(1110m) 7(8700m)
Di, 24.11. 2:40 7(1050m)
Di, 24.11. 2:30 5(930m) 7(1230m)
Di, 24.11. 2:20 5(930m)
Di, 24.11. 2:10 3(930m) 3(1350m) 5(9000m)
Di, 24.11. 2:00 1(1020m) 6(9000m)
Di, 24.11. 1:30 1(1170m) 3(8700m)
Di, 24.11. 1:00 6(1140m) 8(6900m) 8(9000m)
Di, 24.11. 0:30 1(6900m) 4(7500m) 6(8400m)
Di, 24.11. 0:00 7(9000m) 6(9000m)
Ortszeit Luftdruck NN (hPa) Tendenz (hPa in 3 Std.)
Di, 24.11. 1:00 1028 - 1,0
Mo, 23.11. 19:00 1029 + 0,2
Mo, 23.11. 13:00 1029 + 0,5
Mo, 23.11. 7:00 1027 + 1,0
Mo, 23.11. 1:00 1026 + 0,1
So, 22.11. 19:00 1026 + 0,4
So, 22.11. 13:00 1026 + 0,1
So, 22.11. 7:00 1025 0,0
Ortszeit Luftdruck NN (hPa) Tendenz (hPa in 3 Std.)
Di, 24.11. 3:00 1027 - 1,4
Di, 24.11. 2:50 1027 keine Meldung
Di, 24.11. 2:40 1027 keine Meldung
Di, 24.11. 2:30 1027 - 1,3
Di, 24.11. 2:20 1027 keine Meldung
Di, 24.11. 2:10 1028 keine Meldung
Di, 24.11. 2:00 1028 - 1,1
Di, 24.11. 1:30 1028 - 0,9
Di, 24.11. 1:00 1028 - 1,0
Di, 24.11. 0:30 1028 - 0,8
Di, 24.11. 0:00 1028 - 0,7
Ortszeit Schneehöhe (cm)
Di, 24.11. 1:00 0
Mo, 23.11. 19:00 0
Mo, 23.11. 13:00 0
Mo, 23.11. 7:00 0
Mo, 23.11. 1:00 0
So, 22.11. 19:00 0
So, 22.11. 13:00 0
So, 22.11. 7:00 0
Ortszeit Schneehöhe (cm)
Di, 24.11. 3:00 0
Di, 24.11. 2:50 0
Di, 24.11. 2:40 0
Di, 24.11. 2:30 0
Di, 24.11. 2:20 0
Di, 24.11. 2:10 0
Di, 24.11. 2:00 0
Di, 24.11. 1:30 0
Di, 24.11. 1:00 0
Di, 24.11. 0:30 0
Di, 24.11. 0:00 0
Link zu dieser Seite / Seite empfehlen

Das Wetter in ...